Flag for Germany Weather past 2 weeks in Hilden, North Rhine-Westphalia, Germany

41 °F


Feels Like: 35 °F
Forecast: 38 / 42 °F
Wind: 10 mph from Northeast

Location: Duesseldorf

Current Time: Oct 13, 2015 at 7:25:00 PM

Latest Report: Oct 13, 2015 at 6:50 PM

Visibility: N/A

Pressure: 30.09 "Hg

Humidity: 76%

Dew point: 34 °F

Location of HildenLocation

Historic Weather in Hilden — Graph


Hilden temperature yesterday

Maximum temperature yesterday: 52 °F (at 2:20 PM)
Minimum temperature yesterday: 32 °F (at 5:20 AM)
Average temperature yesterday: 41 °F

Past Weeks' High & Low Weather Summary

High68 °F (Oct 3, 3:20 PM)100% (Oct 2, 7:20 AM)30.60 "Hg (Oct 2, 7:20 AM)
Low32 °F (Oct 12, 5:20 AM)43% (Sep 30, 3:20 PM)29.56 "Hg (Oct 6, 5:20 AM)
Average53 °F80%30.11 "Hg
* Reported Sep 28 6:20 PM — Oct 13 6:20 PM, Hilden, Weather by CustomWeather, © 2015

Note: Actual official high and low records may vary slightly from our data, if they occured in-between our weather recording intervals... More about our weather records


Hilden weather history for previous 24 hours

Time TempWeatherWind HumidityBarometerVisibility
6:20 PM
Tue, Oct 13
41 °FOvercast.12 mph76%30.09 "Hg6 mi
5:50 PM41 °FOvercast.15 mph76%30.07 "Hg5 mi
5:20 PM41 °FOvercast.14 mph81%30.09 "Hg5 mi
4:50 PM41 °FOvercast.14 mph81%30.07 "Hg6 mi
4:20 PM41 °FOvercast.14 mph76%30.07 "Hg6 mi
3:50 PM41 °FOvercast.14 mph81%30.07 "Hg6 mi
3:20 PM41 °FOvercast.17 mph81%30.07 "Hg6 mi
2:50 PM41 °FPartly sunny.14 mph81%30.07 "Hg6 mi
2:20 PM41 °FPartly sunny.14 mph81%30.07 "Hg6 mi
1:50 PM41 °FPartly sunny.16 mph81%30.07 "Hg6 mi
1:20 PM41 °FPartly sunny.16 mph81%30.07 "Hg6 mi
12:50 PM41 °FPartly sunny.14 mph81%30.07 "Hg6 mi
12:20 PM41 °FPartly sunny.13 mph81%30.04 "Hg6 mi
11:50 AM39 °FBroken clouds.12 mph87%30.04 "HgN/A
11:20 AM39 °FSunny.12 mph87%30.04 "Hg10 mi
10:50 AM37 °FSunny.12 mph87%30.04 "Hg10 mi
10:20 AM37 °FSunny.13 mph87%30.01 "Hg10 mi
9:50 AM36 °FSunny.8 mph93%30.01 "Hg10 mi
9:20 AM36 °FSunny.9 mph93%30.01 "Hg10 mi
8:50 AM36 °FClear.7 mph93%30.01 "Hg10 mi
8:20 AM34 °FClear.6 mph100%30.01 "Hg6 mi
7:50 AM34 °FClear.5 mph100%30.01 "Hg10 mi
7:20 AM34 °FClear.5 mph100%30.01 "Hg10 mi
6:50 AM34 °FClear.6 mph100%30.01 "Hg10 mi
6:20 AM34 °FClear.3 mph93%30.01 "Hg10 mi
5:50 AM34 °FClear.3 mph93%29.98 "Hg10 mi
5:20 AM34 °FClear.3 mph93%29.98 "Hg10 mi
4:50 AM34 °FClear.6 mph93%29.98 "Hg10 mi
4:20 AM34 °FClear.7 mph93%29.98 "Hg10 mi
3:50 AM34 °FClear.5 mph93%29.98 "Hg10 mi
3:20 AM34 °FFog.3 mph93%30.01 "HgN/A
2:50 AM34 °FFog.3 mph93%30.01 "HgN/A
2:20 AM36 °FFog.2 mph93%30.01 "HgN/A
1:50 AM36 °FFog.2 mph93%30.01 "HgN/A
1:20 AM36 °FFog.2 mph93%30.01 "HgN/A
12:50 AM36 °FFog.2 mph93%30.01 "HgN/A
12:20 AM36 °FClear.2 mph93%30.01 "Hg10 mi
11:50 PM
Mon, Oct 12
36 °FClear.5 mph93%30.01 "Hg10 mi
11:20 PM37 °FClear.5 mph87%30.01 "Hg10 mi
10:50 PM39 °FClear.5 mph87%30.04 "Hg10 mi
10:20 PM39 °FClear.6 mph87%30.04 "Hg10 mi
9:50 PM41 °FClear.6 mph81%30.04 "Hg10 mi
9:20 PM41 °FClear.3 mph81%30.04 "Hg10 mi
8:50 PM43 °FClear.7 mph76%30.04 "Hg10 mi
8:20 PM43 °FClear.6 mph76%30.04 "Hg10 mi
7:50 PM45 °FClear.7 mph71%30.04 "Hg10 mi
7:20 PM46 °FSunny.7 mph71%30.04 "Hg10 mi
Weather by CustomWeather, © 2015

See weather overviewHow to use our weather pages